Vorticity
nan nan nan nan nan nan nan nan nan nan nan nan nan nan nan nan nan nan nan nan nan nan nan nan nan nan nan nan nan nan nan nan nan nan nan nan nan nan nan nan nan nan nan nan
nan 10 12 9 10 8 8 5 4 9 8 9 18 12 11 7 6 7 5 5 6 7 9 8 8 8 6 7 8 7 6 8 3 5 8 9 9 9 8 7 10 11 8 nan
nan 6 10 6 10 8 6 8 8 6 11 7 7 10 14 8 7 8 8 7 8 8 6 7 6 6 8 7 8 8 8 8 6 4 5 6 7 9 10 9 10 10 10 nan
nan 13 6 6 7 6 2 9 3 1 3 11 4 12 15 18 9 7 7 8 8 8 8 8 6 5 6 7 7 8 9 7 8 7 5 7 6 6 7 8 6 5 9 nan
nan 13 10 7 11 8 3 11 6 6 2 8 6 11 13 16 13 11 9 8 10 12 9 7 7 8 6 8 8 8 9 6 7 8 5 6 6 6 7 7 7 9 11 nan
nan 3 10 12 13 9 6 8 7 13 16 12 11 1 12 13 14 9 10 9 9 11 11 9 8 7 8 7 8 9 9 7 7 7 8 7 5 6 5 7 9 8 9 nan
nan 8 4 13 12 14 12 -2 9 10 10 12 12 4 16 12 14 15 8 8 10 9 9 10 10 7 9 7 5 8 9 7 7 7 7 7 7 7 7 7 7 8 9 nan
nan 13 14 5 8 9 12 10 4 10 7 12 9 5 23 26 9 12 12 9 7 8 8 9 8 8 9 9 7 7 8 8 7 8 7 8 8 6 9 9 8 9 8 nan
nan 9 15 11 8 4 8 14 9 6 8 13 5 4 25 27 11 10 10 9 10 8 9 8 7 8 9 10 10 9 8 9 9 8 8 8 9 8 8 8 6 7 9 nan
nan 14 8 13 15 3 11 4 7 10 13 5 8 13 16 16 13 9 10 8 7 8 8 8 9 8 8 8 9 10 10 10 8 9 7 9 9 9 8 9 9 9 11 nan
nan 8 9 12 14 7 2 7 12 16 8 9 8 12 18 15 12 11 8 8 8 8 7 8 8 9 10 8 9 8 9 9 8 8 8 8 9 9 9 8 9 11 12 nan
nan 2 15 8 8 17 10 9 5 6 8 9 11 6 19 17 12 11 13 9 9 8 7 7 10 10 9 8 8 8 8 8 8 8 9 9 8 9 9 9 12 12 10 nan
nan 2 1 10 11 19 14 10 7 6 15 12 4 7 8 14 19 18 10 9 10 9 7 7 10 10 9 9 8 10 9 9 8 10 9 9 9 9 10 11 12 11 10 nan
nan 6 13 -1 3 8 10 11 7 6 7 13 1 5 4 20 13 18 18 12 9 11 9 6 7 10 10 10 9 8 10 11 10 9 10 10 11 11 12 11 11 11 11 nan
nan 3 15 6 2 5 9 9 5 5 9 6 12 9 11 15 18 17 14 12 11 10 10 9 7 9 9 9 9 9 11 12 11 10 10 10 11 11 11 13 12 10 10 nan
nan 12 13 11 7 8 8 13 10 -0 5 9 9 7 13 8 12 19 20 14 10 11 11 10 7 9 12 10 10 9 11 13 11 10 11 11 10 10 10 10 8 9 9 nan
nan 11 7 15 11 0 10 18 13 6 5 8 6 8 9 7 14 12 7 17 16 12 11 11 12 10 12 12 11 11 11 13 12 12 11 10 10 10 9 7 8 8 9 nan
nan 16 6 10 11 15 11 12 20 20 2 1 10 16 9 10 14 3 12 12 12 14 13 11 10 11 12 15 13 14 15 13 12 10 9 9 10 9 8 8 8 8 10 nan
nan 4 12 19 -2 5 14 12 18 20 11 11 9 9 10 9 8 16 15 13 12 9 13 14 11 9 12 14 12 11 11 12 11 9 9 10 10 8 8 8 8 8 8 nan
nan 10 -1 13 16 6 4 11 9 9 13 16 16 12 9 8 7 13 14 15 13 13 12 11 13 12 11 11 11 10 9 9 9 10 10 10 9 9 9 8 6 9 11 nan
nan 24 6 6 12 10 19 13 6 7 6 11 18 12 11 10 11 12 11 12 18 16 13 12 13 9 8 10 11 9 9 8 10 11 11 10 10 9 7 8 9 11 11 nan
nan 11 9 9 14 13 12 16 15 -0 9 9 15 17 14 11 12 16 13 13 14 12 10 9 9 12 11 9 8 9 8 11 12 10 9 8 9 9 9 9 10 11 10 nan
nan 14 13 11 5 10 15 12 11 15 13 10 12 14 12 10 11 14 13 12 12 9 7 11 12 10 10 11 8 9 11 12 10 9 8 9 9 10 10 9 9 9 9 nan
nan 13 11 8 12 20 10 11 11 12 14 17 15 11 11 11 8 10 10 12 13 11 10 11 10 8 9 10 12 12 11 10 9 8 8 9 8 8 8 10 11 12 11 nan
nan 4 15 9 10 8 6 12 9 9 14 21 18 14 15 10 11 11 9 11 10 10 11 12 10 10 9 11 14 11 10 8 9 8 7 8 8 8 7 10 13 12 14 nan
nan nan nan nan nan nan nan nan nan nan nan nan nan nan nan nan nan nan nan nan nan nan nan nan nan nan nan nan nan nan nan nan nan nan nan nan nan nan nan nan nan nan nan nan
CAPE
0 0 0 0 0 0 20 0 0 0 63 97 80 558 700 519 497 403 236 210 203 143 82 9 4 0 0 0 0 0 0 0 0 0 0 0 0 0 0 8 135 76 34 636
0 0 0 0 0 0 0 0 0 0 13 4 333 537 618 597 586 459 355 281 185 108 63 27 13 0 0 0 0 0 0 0 0 0 0 1 2 17 10 253 297 275 400 529
0 0 0 0 0 0 0 0 1 1 0 0 168 212 402 536 469 400 378 286 227 169 52 74 47 0 0 0 0 0 0 0 0 0 0 19 316 215 105 19 2 1 80 473
0 0 0 0 0 0 0 0 0 0 0 0 3 1 53 202 246 328 373 318 240 151 112 118 103 1 0 0 0 0 0 0 0 7 88 167 206 467 85 17 0 116 463 654
0 0 0 0 0 0 0 0 0 8 6 0 0 7 0 0 43 100 218 256 168 172 118 164 84 64 21 4 0 21 0 2 135 0 124 119 63 31 109 285 540 264 449 1073
0 0 0 0 0 0 4 0 0 0 0 0 4 23 0 0 0 33 54 215 100 89 197 189 136 83 81 53 19 84 75 93 129 391 111 135 285 443 722 706 498 935 841 1241
0 0 0 0 0 0 1 0 0 0 0 0 0 0 0 0 0 0 0 63 56 93 290 295 211 147 106 97 100 156 135 117 212 295 329 335 157 110 189 319 476 498 819 1055
0 0 0 0 0 0 0 0 0 0 0 0 0 0 0 0 0 0 0 0 0 122 103 180 200 250 245 224 213 293 172 134 162 321 617 449 512 729 1093 1482 1381 1157 995 1253
0 0 0 0 0 0 0 0 0 0 0 0 0 0 0 0 0 0 0 0 0 134 156 217 174 158 233 249 351 486 501 295 427 582 701 1305 1042 1021 1125 1230 1306 1143 844 952
0 0 0 0 0 0 0 0 0 0 0 0 0 0 0 0 0 0 0 0 0 12 98 215 217 200 226 237 215 514 791 1009 1080 1309 1304 1250 1633 1617 1470 1418 1294 1917 1993 1903
0 0 0 0 0 0 0 0 0 0 0 0 0 0 0 0 0 0 0 0 0 0 1 65 133 138 231 238 209 242 747 1050 1280 1453 1541 1570 1410 1656 1695 1565 1532 1689 1734 1420
0 0 0 0 0 0 0 0 0 0 0 0 0 0 0 0 0 0 0 0 0 0 0 2 41 61 148 130 82 221 792 1056 1233 1419 1463 1558 1517 1595 1741 1833 2015 2083 1505 1228
0 0 0 0 0 0 0 0 0 0 0 0 0 0 0 0 0 0 0 0 0 0 0 0 0 9 115 104 95 224 733 1020 1244 1430 1493 1578 1661 1797 1963 2269 2247 1637 1136 282
0 0 0 0 0 0 0 0 0 0 0 0 0 0 0 0 0 0 0 0 0 0 0 0 9 8 90 99 82 183 815 1085 1362 1617 1635 1748 2024 2205 2273 2003 1401 554 23 0
0 0 0 0 0 0 0 0 0 0 0 0 0 0 0 0 0 0 0 0 0 0 0 0 0 54 104 135 114 180 359 1209 1498 1775 1938 2209 1903 1623 1262 553 156 0 0 0
0 0 0 0 0 0 0 0 0 0 0 0 0 0 0 0 0 0 0 0 0 0 0 0 0 5 93 151 157 285 446 1472 1728 2036 1969 1483 1167 798 232 0 0 0 0 0
0 0 0 0 0 0 0 0 0 0 0 0 0 0 0 0 0 0 0 0 0 3 0 0 0 5 78 195 272 534 1438 2043 2269 1863 1403 1102 583 272 18 0 0 0 0 0
0 0 0 0 0 0 0 0 0 0 0 0 0 0 0 0 0 0 0 0 474 1190 972 430 272 551 1050 1116 1110 2027 2259 2069 1712 1342 958 478 263 30 0 0 0 0 0 0
0 0 0 0 0 0 0 0 0 0 0 0 0 0 0 0 0 0 29 2 815 1183 1348 1414 1358 1638 1920 2076 2147 1817 1467 1258 1166 890 495 216 33 0 0 0 0 0 0 0
0 0 0 0 0 0 0 0 0 0 0 0 0 0 0 0 0 0 4 18 729 1057 1368 1579 1544 1924 2151 1952 1572 1330 1044 956 821 504 91 14 0 0 0 0 0 0 0 0
0 0 0 0 0 0 0 0 0 0 0 0 0 0 0 0 0 0 0 112 653 1030 1541 1702 2012 2187 2029 1507 1248 1045 886 784 342 4 0 0 0 0 0 0 0 0 0 0
0 0 0 0 0 0 0 0 0 0 0 0 0 0 0 0 0 0 165 609 1360 1683 1761 1834 2045 2147 1603 1323 1167 924 823 110 0 0 0 0 0 0 0 0 0 0 0 0
0 0 0 0 0 0 0 0 0 0 0 0 0 0 0 35 295 791 1104 1358 1695 1911 1896 2143 2116 1738 1500 1211 1060 625 15 0 0 0 0 0 0 0 0 0 0 0 0 0
0 0 0 0 0 0 0 0 0 0 14 0 0 0 0 13 1093 1483 1701 1789 1950 2068 2312 2121 1813 1602 1195 859 376 0 0 0 0 0 0 0 0 0 0 0 0 0 0 0
0 0 0 0 0 0 0 0 0 0 0 0 0 0 0 210 1883 1856 1871 1972 2165 2314 2088 1909 1678 1295 804 11 0 0 0 0 0 0 0 0 0 0 0 0 0 0 0 0
0 0 0 0 0 0 0 12 68 4 0 0 2 18 181 579 1773 2000 2209 2379 2309 2010 1731 1510 1228 458 0 0 0 0 0 0 0 0 0 0 0 0 0 0 0 0 0 0